Regional Weather Roundup
Issued by NWS

Home | Current Version | Previous Version | Text Only | Print | Product List | Glossary Off
Versions: 1 2 3 4 5 6 7 8 9 10 11 12 13 14 15 16 17 18 19 20 21 22 23 24 25 26 27 28 29 30 31 32 33 34 35 36 37 38 39 40 41 42 43 44 45 46 47 48 49 50

000
ASUS45 KSLC 270110
RWRUT

UTAH REGIONAL WEATHER ROUNDUP
NATIONAL WEATHER SERVICE SALT LAKE CITY UT
700 PM MDT TUE AUG 26 2014

UTZ001>011-023>025-270200-

NORTHERN UTAH

CITY           SKY/WX    TMP DP  RH WIND       PRES   REMARKS
HILL AFB       CLOUDY    69  45  41 E13G25    30.13R
LOGAN          CLOUDY    69  47  45 E24G36    30.12R
OGDEN          CLOUDY    74  41  30 VRB6      30.10R
PROVO AIRPORT  CLOUDY    70  46  43 W12G17    30.12R
SALT LAKE CITY LGT RAIN  69  50  50 SE3       30.12R
VERNAL         CLOUDY    68  55  63 SW8       30.18R
WENDOVER       PTSUNNY   73  39  29 NW18      30.09S
HEBER CITY     CLOUDY    68  50  52 SW3       30.17S
WEST JORDAN    PTSUNNY   70  50  49 NW10      30.14R

$$

UTZ012>022-026-027-270200-

SOUTHERN UTAH

CITY           SKY/WX    TMP DP  RH WIND       PRES   REMARKS
BRYCE CANYON   LGT RAIN  54  38  54 N8        30.30F
CEDAR CITY     PTSUNNY   68  52  56 S6        30.11F
MILFORD        CLOUDY    68  51  54 W14G20    30.11R THUNDER
MOAB/CYNLANDS  LGT RAIN  68  49  50 SW7       30.17S
PRICE          CLOUDY    65  48  54 E8        30.23R
ST GEORGE      CLOUDY    84  48  28 N12       29.95S
KANAB          CLOUDY    64  50  59 NW16G31   30.17R

$$

REGIONAL REPORTS     COLORADO/ARIZONA

CITY           SKY/WX    TMP DP  RH WIND       PRES   REMARKS
CRAIG, CO      MOCLDY    69  48  47 E10       30.22F
GRAND JUNCTION MOCLDY    74  46  36 S3        30.14R
RIFLE          CLOUDY    68  54  60 CALM      30.20F
MONTROSE       CLOUDY    66  54  65 SE14      30.24F
CORTEZ         LGT RAIN  58  55  90 W21G30    30.25R
PAGE, AZ       CLOUDY    69  54  58 E10       30.15R
GRAND CANYON   PTSUNNY   61  50  67 S9        30.27S
KINGMAN        MOSUNNY   83  55  38 SW10      30.03F
FLAGSTAFF      CLOUDY    57  51  80 E3        30.30F THUNDER

$$

REGIONAL REPORTS    NEVADA/IDAHO/WYOMING

CITY           SKY/WX    TMP DP  RH WIND       PRES   REMARKS
LAS VEGAS, NV  MOSUNNY   94  28   9 S14G29    29.84S
ELY            CLOUDY    59  42  53 CALM      30.22F
ELKO           PTSUNNY   69  41  36 S10       30.13F
POCATELLO, ID  MOSUNNY   77  44  30 N5        30.12F
BURLEY         MOSUNNY   76  47  35 N3        30.08S
EVANSTON, WY   PTSUNNY   60  43  53 E6        30.28F
ROCK SPRINGS   CLOUDY    61  39  44 SE17      30.26R

$$



USA.gov is the U.S. government's official web portal to all federal, state and local government web resources and services.